SB KEPS @ AMSAT $ORB26264.1 2Line Orbital Elements 26264.AMSAT QST de W1STR AMSAT Orbital Elements for Amateur Satellites in TLE Format From Orbital Analysis Office New England Sci-Tech STEM Education Center Natick MA September 21, 2026 To all radio amateurs These element sets describe the orbits of various satellites in use by the amateur radio community. For details see: www.amsat.org/keplerian-elements-formats/ A daily update of element sets is available at: www.amsat.org/tle/daily-bulletin.txt or without bulletin text: www.amsat.org/tle/dailytle.txt AO-07 1 07530U 74089B 26264.28807289 -.00000037 00000-0 56963-4 0 9991 2 07530 101.9920 278.5390 0011988 309.0150 62.1343 12.53699625372568 UO-11 1 14781U 84021B 26264.19600994 .00000984 00000-0 10516-3 0 9991 2 14781 97.8183 228.7713 0006480 217.9790 142.0972 14.91003438271437 LO-19 1 20442U 90005G 26264.04328088 .00000042 00000-0 31816-4 0 9998 2 20442 98.8819 288.4751 0010491 286.4981 73.5049 14.34144862916130 AO-27 1 22825U 93061C 26264.14444221 .00000027 00000-0 27180-4 0 9991 2 22825 98.6788 331.4782 0008540 171.4513 188.6816 14.30962225720724 FO-29 1 24278U 96046B 26263.98065640 .00000003 00000-0 39837-4 0 9992 2 24278 98.5163 99.7186 0349390 207.6942 150.5202 13.53278414486129 GO-32 1 25397U 98043D 26264.22649603 .00000027 00000-0 32049-4 0 9993 2 25397 99.0160 259.4469 0000700 356.5801 3.5372 14.24443582465009 ISS 1 25544U 98067A 26264.17466374 .00007601 00000-0 14494-3 0 9997 2 25544 51.6309 185.0320 0004778 163.5850 196.5294 15.49206805586633 NO-44 1 26931U 01043C 26263.98617166 .00000035 00000-0 43940-4 0 9994 2 26931 67.0532 356.4854 0005847 273.0989 86.9444 14.31985191304164 SO-50 1 27607U 02058C 26264.17312219 .00000541 00000-0 81625-4 0 9999 2 27607 64.5524 191.9652 0071615 244.8202 114.5466 14.83221192278697 CO-55 1 27844U 03031E 26264.27513155 .00000165 00000-0 90365-4 0 9990 2 27844 98.6774 271.6428 0008385 266.4617 93.5603 14.24383809205357 RS-22 1 27939U 03042A 26264.30875157 .00000377 00000-0 66232-4 0 9995 2 27939 98.3485 91.4133 0010685 330.1700 154.8869 14.73606023229707 CO-65 1 32785U 08021C 26264.14632219 .00002961 00000-0 18520-3 0 9991 2 32785 97.8388 247.6718 0010358 66.9635 293.2685 15.10207648999676 CO-66 1 32791U 08021J 26263.55189160 .00013623 00000-0 39424-3 0 9997 2 32791 97.7575 266.2526 0002303 30.1974 329.9401 15.35729789 1909 RS-30 1 32953U 08025A 26264.26978427 .00000017 00000-0 47379-4 0 9994 2 32953 82.5014 295.6813 0020732 101.8170 258.5237 12.43182926831631 SRMSAT 1 37841U 11058D 26264.23349410 .00000348 00000-0 44768-4 0 9992 2 37841 19.9709 198.1101 0011832 180.0640 326.3012 14.11593554771409 ZACUBE-1 1 39417U 13066B 26263.63935404 .00003321 00000-0 25530-3 0 9990 2 39417 97.8156 226.4791 0038914 293.4880 66.2256 15.01849400695056 Delfi-N3xt 1 39428U 13066N 26264.25179646 .00003848 00000-0 33031-3 0 9998 2 39428 97.8286 184.5197 0071202 246.3561 113.0175 14.96136594688987 GOMX-1 1 39430U 13066Q 26264.25768020 .00001187 00000-0 18282-3 0 9996 2 39430 97.6438 98.6656 0128970 128.2268 233.0632 14.69711958684024 LO-74 1 39440U 13066AA 26264.30367196 .00002011 00000-0 18665-3 0 9994 2 39440 97.8991 213.7675 0058519 68.9901 291.7565 14.94299957691344 AO-73 1 39444U 13066AE 26264.20450628 .00004785 00000-0 28963-3 0 9992 2 39444 97.8392 237.7962 0033780 235.1218 124.6834 15.10653388694156 DTUSAT-2 1 40030U 14033W 26262.98142673 .00004216 00000-0 22294-3 0 9991 2 40030 98.0927 266.8360 0006024 272.2482 87.8059 15.16068449667048 LILACSAT-2 1 40908U 15049K 26264.27979429 .00014041 00000-0 21497-3 0 9995 2 40908 97.4558 304.9339 0004631 253.5112 106.5633 15.54464480610669 Lapan A3 1 41603U 16040E 26264.25084740 .00002325 00000-0 73708-4 0 9996 2 41603 97.1574 257.3176 0011246 39.4724 320.7336 15.33628626569537 CAS-2T 1 41847U 16066G 26264.22680710 .00000831 00000-0 12550-3 0 9997 2 41847 98.3748 338.8543 0340888 197.9120 160.9816 14.44851980518660 TechnoSat 1 42829U 17042E 26264.24379464 .00002687 00000-0 19069-3 0 9999 2 42829 97.4408 58.3532 0018570 123.8136 236.4862 15.05431844501158 AO-91 1 43017U 17073E 26263.88554801 .00005833 00000-0 24855-3 0 9997 2 43017 97.4549 129.1458 0147072 358.5223 1.5554 15.13986341479869 S-Net D 1 43186U 18014G 26263.64031014 .00002975 00000-0 15208-3 0 9996 2 43186 97.5248 167.8276 0009517 54.9506 305.2619 15.17418144473238 S-Net B 1 43187U 18014H 26264.18126562 .00002837 00000-0 14528-3 0 9991 2 43187 97.5254 168.3543 0010061 48.8940 311.3161 15.17389628473312 S-Net A 1 43188U 18014J 26264.16620636 .00003190 00000-0 16270-3 0 9990 2 43188 97.5265 168.5671 0009923 49.6245 310.5853 15.17430114473317 S-Net C 1 43189U 18014K 26264.18572791 .00002823 00000-0 14458-3 0 9999 2 43189 97.5281 168.6758 0011104 42.1843 318.0243 15.17380180471860 Ten-Koh 1 43677U 18084G 26263.51851961 .00000756 00000-0 60689-4 0 9994 2 43677 98.0716 99.9156 0009838 151.9560 208.2196 15.03253812430481 PO-101 1 43678U 18084H 26264.25645046 .00000908 00000-0 76748-4 0 9994 2 43678 98.1174 104.6942 0012041 206.5040 153.5569 15.00740810430626 QO-100 1 43700U 18090A 26264.06648215 .00000140 00000-0 00000-0 0 9999 2 43700 0.0012 161.2484 0001170 5.3041 243.1178 1.00271313 28630 MinXSS-2 1 43758U 18099A 26264.26859862 .00036705 00000-0 57255-3 0 9998 2 43758 97.4444 343.7999 0005538 263.0493 97.0131 15.53743201429011 AO-95 1 43770U 18099N 26264.10436986 .00007425 00000-0 27002-3 0 9997 2 43770 97.4286 324.0680 0008377 19.5882 340.5677 15.28515537427861 SNUSat 2 1 43782U 18099AA 26261.13610748 .00004914 00000-0 21133-3 0 9999 2 43782 97.3962 313.1241 0009052 338.1889 21.8961 15.23071167427174 SnugLite 1 43784U 18099AC 26264.14066779 .00006894 00000-0 24778-3 0 9991 2 43784 97.3771 317.5475 0001558 342.2948 17.8238 15.28954954427975 ITASat 1 1 43786U 18099AE 26263.89849579 .00004104 00000-0 19293-3 0 9999 2 43786 97.3935 313.5167 0012680 25.4875 334.6983 15.20074721427446 EAGLET 1 1 43790U 18099AJ 26264.13202192 .00002296 00000-0 13154-3 0 9996 2 43790 97.4137 311.2471 0011427 22.4366 337.7364 15.13540923426843 ESEO 1 43792U 18099AL 26264.02833725 .00000868 00000-0 66088-4 0 9996 2 43792 97.3909 297.2892 0012203 14.9103 345.2481 15.04482334426215 JO-97 1 43803U 18099AX 26263.91760663 .00011939 00000-0 33774-3 0 9992 2 43803 97.4029 327.2269 0003810 289.5391 70.5441 15.36459109428313 Suomi 100 1 43804U 18099AY 26264.25058619 .00008510 00000-0 29177-3 0 9995 2 43804 97.4087 324.3702 0007991 303.6293 56.4185 15.30400800428104 ISAT 1 43879U 18111D 26264.10570713 .00672402 21790-3 10920-2 0 9994 2 43879 97.5694 208.6053 0009963 143.3023 216.8941 16.03328286426293 UWE-4 1 43880U 18111E 26264.27204069 .00030221 00000-0 49985-3 0 9991 2 43880 97.5811 197.5096 0005520 5.2814 354.8496 15.52151926425653 Prox-1 1 44339U 19036A 26264.18639626 .00009675 00000-0 88905-3 0 9993 2 44339 23.9933 191.9468 0005497 72.9298 287.1804 14.92614573387824 Taurus 1 1 44530U 19059C 26264.25648476 .00002833 00000-0 45042-3 0 9996 2 44530 98.6502 75.1679 0008644 16.8229 343.3262 14.72929148372780 TO-108 1 44881U 19093C 26264.29764747 .00001010 00000-0 11964-3 0 9999 2 44881 97.7445 334.1482 0014676 126.5639 233.6930 14.86641808365695 RS-44 1 44909U 19096E 26264.00939365 .00000029 00000-0 81504-4 0 9999 2 44909 82.5167 276.0315 0216341 280.4022 77.2762 12.79749428314604 SALSAT 1 46495U 20068K 26264.25927921 .00005106 00000-0 17325-3 0 9994 2 46495 97.8892 273.2830 0008444 335.3209 24.7626 15.30990001330059 CSS (TIANHE-1) 1 48274U 21035A 26263.98635566 .00014007 00000-0 17119-3 0 9997 2 48274 41.4678 100.3250 0002512 293.9975 66.0601 15.60145341308125 TeikyoSat 4 1 49396U 21102B 26264.29627183 .00001167 00000-0 75963-4 0 9994 2 49396 97.3627 290.0357 0010992 329.3839 30.6748 15.09786721267224 Z-Sat 1 49399U 21102E 26264.33533959 .00002706 00000-0 13266-3 0 9996 2 49399 97.3267 296.7451 0014469 271.7382 88.2195 15.18884757268034 KOSEN 1 1 49402U 21102H 26263.59121350 .00004558 00000-0 16930-3 0 9994 2 49402 97.3103 303.9283 0012069 223.7642 136.2642 15.27989942268585 HO-113 1 50466U 21131B 26264.26705811 .00000236 00000-0 86474-4 0 9993 2 50466 98.4966 356.1327 0004494 155.0535 205.0872 14.41428919248952 SNUGLITE 2 1 52899U 22065F 26264.16703332 .00000575 00000-0 11769-3 0 9997 2 52899 98.2343 48.9136 0008678 84.3401 275.8791 14.64493121225041 UmKA 1 (RS40S) 1 57172U 23091G 26264.25749141 .00003819 00000-0 17136-3 0 9992 2 57172 97.4952 322.5938 0013551 138.9854 221.2403 15.21727059178611 CubeBel-2 (EU11S) 1 57175U 23091K 26264.24453740 .00008930 00000-0 29838-3 0 9992 2 57175 97.4953 328.4125 0010538 130.0774 230.1393 15.31202734178991 RS-38S 1 57189U 23091Z 26264.27923894 .00012742 00000-0 33396-3 0 9992 2 57189 97.5003 335.8378 0008003 89.6057 270.6105 15.38790892179458 SONATE-2 1 59112U 24043Q 26263.18449285 .00045310 00000-0 43676-3 0 9993 2 59112 97.5624 60.0165 0005401 207.1016 152.9962 15.66376204142728 GRBBeta 1 60237U 24128C 26263.37380526 .00002088 00000-0 15133-3 0 9992 2 60237 61.9884 242.1526 0026667 155.5743 204.6621 15.07199001120619 Curium One 1 60242U 24128H 26263.46331312 .00004552 00000-0 26221-3 0 9995 2 60242 61.9773 228.0047 0025895 149.7466 210.5132 15.13678729120879 ROBUSTA-3A 1 60243U 24128J 26263.61578623 .00003678 00000-0 21964-3 0 9998 2 60243 61.9849 230.4786 0027815 146.8429 213.4417 15.12760143120859 CatSat 1 60246U 24125J 26264.04335619 .00093868 00000-0 68379-3 0 9993 2 60246 97.1942 118.6597 0015345 175.0363 185.1056 15.72866649122388 AO-123 1 61781U 24199AY 26264.23684288 .00005455 00000-0 15304-3 0 9994 2 61781 97.2839 132.0467 0012381 330.8722 29.1831 15.36918585148677 LASARsat 1 62391U 24247Q 26262.82201670 .00033498 00000-0 53930-3 0 9994 2 62391 44.9718 88.0673 0009767 232.1281 127.8728 15.52377278 97992 CroCube 1 62394U 24247T 26263.89520826 .00038917 00000-0 55900-3 0 9992 2 62394 44.9695 77.3471 0010500 248.1402 111.8375 15.55439305 98215 JINJUSat 1B 1 63210U 25052A 26263.65388698 .00012508 00000-0 35619-3 0 9991 2 63210 97.3863 160.6564 0005235 96.6312 263.5528 15.36232088 84742 NUSHSAT 1 1 63211U 25052B 26263.97601595 .00015527 00000-0 39747-3 0 9991 2 63211 97.3831 161.9276 0004999 98.3591 261.8222 15.39483743 84860 TEVEL2-4 1 63213U 25052D 26264.19547508 .00014445 00000-0 39160-3 0 9998 2 63213 97.3755 160.8905 0004568 107.0812 253.0933 15.37732335 84853 TEVEL2-5 1 63214U 25052E 26264.16332783 .00013508 00000-0 36914-3 0 9996 2 63214 97.3755 160.7754 0004410 108.5467 251.6257 15.37502263 84840 TEVEL2-6 1 63215U 25052F 26263.98252351 .00013266 00000-0 36301-3 0 9999 2 63215 97.3757 160.5791 0004311 109.4815 250.6896 15.37465495 84819 TEVEL2-1 1 63217U 25052H 26264.17862780 .00013028 00000-0 36403-3 0 9995 2 63217 97.3730 160.2770 0004318 118.2199 241.9482 15.36819113 84820 TEVEL2-3 1 63218U 25052J 26263.97375170 .00012841 00000-0 35803-3 0 9990 2 63218 97.3734 160.1086 0004064 117.0378 243.1282 15.36891154 84791 TEVEL2-2 1 63219U 25052K 26263.98285148 .00012806 00000-0 35778-3 0 9999 2 63219 97.3731 160.0853 0004333 118.9163 241.2517 15.36827469 84799 TEVEL2-9 1 63237U 25052AD 26263.96118710 .00011070 00000-0 33239-3 0 9999 2 63237 97.3790 159.2132 0006887 142.7798 217.3923 15.34584512 84702 TEVEL2-7 1 63238U 25052AE 26263.63140292 .00011240 00000-0 34148-3 0 9993 2 63238 97.3794 158.7540 0006769 145.3032 214.8654 15.34209101 84647 TEVEL2-8 1 63239U 25052AF 26263.64044394 .00011438 00000-0 34755-3 0 9994 2 63239 97.3793 158.7377 0006840 144.1187 216.0517 15.34199195 84646 SPIRONE 1 66657U 25274H 26264.24975497 .00000949 00000-0 94586-4 0 9995 2 66657 97.7485 192.1862 0013415 58.1766 302.0758 14.93860671 44567 K-HERO 1 66660U 25274L 26264.02753661 .00001453 00000-0 14050-3 0 9990 2 66660 97.7494 192.1973 0015370 62.3759 297.9019 14.94255126 44549 SNUGLITE-III DURI 1 66661U 25274M 26263.54517659 .00001425 00000-0 13789-3 0 9999 2 66661 97.7489 191.7414 0015970 64.8441 295.4434 14.94259111 44474 SAKHACUBE-CHOLBON 1 67290U 25313AU 26262.47528959 .00006672 00000-0 25897-3 0 9990 2 67290 97.3858 336.3909 0009481 32.4435 327.7385 15.26386511 40357 RS95S (QMR-KWT-2) 1 67291U 25313AV 26264.18828093 .00008715 00000-0 31631-3 0 9996 2 67291 97.3846 338.5103 0008571 24.6570 335.5078 15.28523581 40647 Ten-Koh2 1 68261U 25241B 26263.46677853 .00004081 00000-0 17505-3 0 9996 2 68261 51.6567 225.7887 0008222 102.0552 258.1348 15.24919814 29447 JACK-002 1 68417U 26067B 26264.14876928 .00004487 00000-0 20899-3 0 9996 2 68417 97.4674 221.6777 0001152 15.8919 344.2352 15.20418457 26524 DISCO 2 1 68431U 26067R 26264.11652332 .00005498 00000-0 25592-3 0 9998 2 68431 97.4705 221.6479 0003468 53.7338 306.4217 15.20335774 26511 HADES-SA (SpinnyONE) 1 68446U 26067AG 26263.37896080 .00013808 00000-0 60669-3 0 9999 2 68446 97.4489 220.4994 0009042 98.8417 261.3843 15.21992645 26394 PARUS-6U1 1 68456U 26067AS 26264.16748662 .00004031 00000-0 19929-3 0 9991 2 68456 97.4660 221.1680 0007463 90.2933 269.9156 15.18378127 26491 SAL-E 1 68458U 26067AU 26264.13688928 .00004973 00000-0 24111-3 0 9992 2 68458 97.4580 221.0373 0007765 97.0212 263.1905 15.18950057 26498 FSI-SAT 2 1 68792U 26088A 26263.35857254 .00003507 00000-0 23475-3 0 9993 2 68792 97.5199 50.3499 0015100 138.5731 221.6645 15.07473881 22621 OrigamiSat 2 1 68795U 26088D 26263.93692496 .00008042 00000-0 48854-3 0 9992 2 68795 97.5188 51.4135 0015732 109.1592 251.1342 15.10645289 22743 ARICA 2 1 68796U 26088E 26263.39923905 .00002587 00000-0 16676-3 0 9990 2 68796 97.5192 50.7369 0016913 110.5785 249.7261 15.09074875 22650 WASEDA-SAT-ZERO-II 1 68797U 26088F 26262.64357720 .00004134 00000-0 26074-3 0 9997 2 68797 97.5183 50.0502 0016405 112.7189 247.5777 15.09553759 22540 MANGARO-II-Piscus 1 68798U 26088G 26264.29330280 .00003074 00000-0 19564-3 0 9991 2 68798 97.5200 51.7073 0020146 110.5105 249.8289 15.09364179 22799 CO-128 1 69912U 26156AV 26264.18326932 .00000832 00000-0 89817-4 0 9991 2 69912 97.7471 163.2778 0000990 229.1576 130.9556 14.90956264 11308 MARINA 1 69920U 26156BD 26264.19016089 .00001373 00000-0 14028-3 0 9992 2 69920 97.7439 163.3940 0005849 262.7202 97.3352 14.92181300 11314 IO-86 1 40931U 26199.45381863 .00000000 00000-0 77536-4 0 07 2 40931 6.0006 322.6653 0012733 338.8432 273.6875 14.79294310 03 LILIUM-4 1 71922C 26067AC 26089.50133053 -.00014632 00000+0 -74472-3 0 04 2 71922 97.4497 49.1617 0004341 5.9603 355.7042 15.16896692 16 /EX